When you browse on this site, cookies collect data to enhance your experience and personalize the content and advertising you see.
Visit our Privacy Policy to learn more. By continuing to use the site, you agree to this use of cookies and data.
  • In Latvia
  • List of Countries
  • For 7 days
  • Water Temperature
  • Weather Map
  • Weather Widgets
  • user-avatar
    Login

    Hourly Weather Millerov

    Today, 22 August, Thursday

    Time Temperature Precipitation Wind Pressure Humidity
    00:00 +29°C° 0 mm 6 mps 758 mmHg 44%
    01:00 +28°C° 0 mm 6 mps 758 mmHg 46%
    02:00 +28°C° 0 mm 5 mps 758 mmHg 49%
    03:00 +27°C° 0 mm 4 mps 758 mmHg 49%
    04:00 +26°C° 0 mm 4 mps 758 mmHg 52%
    05:00 +26°C° 0 mm 4 mps 758 mmHg 56%
    06:00 +25°C° 0 mm 4 mps 758 mmHg 59%
    07:00 +27°C° 0 mm 5 mps 758 mmHg 54%
    08:00 +29°C° 0 mm 5 mps 758 mmHg 50%
    09:00 +32°C° 0 mm 6 mps 758 mmHg 45%
    10:00 +34°C° 0 mm 5 mps 758 mmHg 40%
    11:00 +35°C° 0 mm 5 mps 758 mmHg 35%
    12:00 +37°C° 0 mm 5 mps 758 mmHg 29%
    13:00 +39°C° 0 mm 5 mps 758 mmHg 28%
    14:00 +39°C° 0 mm 6 mps 758 mmHg 26%
    15:00 +40°C° 0 mm 6 mps 758 mmHg 24%
    16:00 +39°C° 0 mm 5 mps 758 mmHg 26%
    17:00 +37°C° 0 mm 5 mps 758 mmHg 27%
    18:00 +37°C° 0 mm 5 mps 758 mmHg 28%
    19:00 +35°C° 0 mm 5 mps 758 mmHg 31%
    20:00 +33°C° 0 mm 4 mps 758 mmHg 34%
    21:00 +30°C° 0 mm 4 mps 758 mmHg 37%
    22:00 +29°C° 0 mm 4 mps 758 mmHg 41%
    23:00 +28°C° 0 mm 4 mps 758 mmHg 44%

    Tomorrow, 23 August, Friday

    Time Temperature Precipitation Wind Pressure Humidity
    00:00 +28°C° 0 mm 4 mps 758 mmHg 47%
    01:00 +27°C° 0 mm 5 mps 758 mmHg 48%
    02:00 +27°C° 0 mm 5 mps 759 mmHg 49%
    03:00 +27°C° 0 mm 5 mps 759 mmHg 50%
    04:00 +27°C° 0 mm 5 mps 759 mmHg 49%
    05:00 +26°C° 0 mm 5 mps 758 mmHg 49%
    06:00 +26°C° 0 mm 6 mps 758 mmHg 48%
    07:00 +28°C° 0 mm 6 mps 759 mmHg 44%
    08:00 +29°C° 0 mm 6 mps 759 mmHg 41%
    09:00 +32°C° 0 mm 7 mps 759 mmHg 37%
    10:00 +33°C° 0 mm 7 mps 759 mmHg 34%
    11:00 +35°C° 0 mm 7 mps 759 mmHg 31%
    12:00 +36°C° 0 mm 7 mps 759 mmHg 29%
    13:00 +38°C° 0 mm 7 mps 759 mmHg 28%
    14:00 +38°C° 0 mm 7 mps 759 mmHg 28%
    15:00 +38°C° 0 mm 7 mps 759 mmHg 28%
    16:00 +38°C° 0 mm 7 mps 759 mmHg 29%
    17:00 +36°C° 0 mm 6 mps 759 mmHg 31%
    18:00 +35°C° 0 mm 6 mps 759 mmHg 32%
    19:00 +34°C° 0 mm 6 mps 759 mmHg 36%
    20:00 +33°C° 0 mm 6 mps 759 mmHg 39%
    21:00 +30°C° 0 mm 6 mps 759 mmHg 42%
    22:00 +29°C° 0 mm 6 mps 759 mmHg 44%
    23:00 +29°C° 0 mm 6 mps 759 mmHg 45%

    Day after tomorrow, 24 August, Saturday

    Time Temperature Precipitation Wind Pressure Humidity
    00:00 +28°C° 0 mm 6 mps 759 mmHg 47%
    01:00 +27°C° 0 mm 6 mps 759 mmHg 49%
    02:00 +27°C° 0 mm 6 mps 759 mmHg 52%
    03:00 +26°C° 0 mm 6 mps 759 mmHg 54%
    04:00 +26°C° 0 mm 6 mps 759 mmHg 57%
    05:00 +24°C° 0 mm 6 mps 759 mmHg 59%
    06:00 +24°C° 0 mm 6 mps 759 mmHg 61%
    07:00 +27°C° 0 mm 6 mps 759 mmHg 57%
    08:00 +28°C° 0 mm 6 mps 760 mmHg 53%
    09:00 +30°C° 0 mm 7 mps 760 mmHg 49%
    10:00 +32°C° 0 mm 7 mps 760 mmHg 44%
    11:00 +34°C° 0 mm 7 mps 760 mmHg 39%
    12:00 +36°C° 0 mm 7 mps 760 mmHg 34%
    13:00 +36°C° 0 mm 7 mps 759 mmHg 33%
    14:00 +38°C° 0 mm 7 mps 759 mmHg 32%
    15:00 +38°C° 0 mm 7 mps 759 mmHg 30%
    16:00 +38°C° 0 mm 6 mps 759 mmHg 31%
    17:00 +36°C° 0 mm 6 mps 759 mmHg 32%
    18:00 +36°C° 0 mm 5 mps 759 mmHg 32%
    19:00 +34°C° 0 mm 5 mps 759 mmHg 35%
    20:00 +32°C° 0 mm 5 mps 760 mmHg 39%
    21:00 +30°C° 0 mm 5 mps 760 mmHg 42%
    22:00 +29°C° 0 mm 4 mps 760 mmHg 44%
    23:00 +28°C° 0 mm 4 mps 760 mmHg 45%

    25 August, Sunday

    Time Temperature Precipitation Wind Pressure Humidity
    00:00 +28°C° 0 mm 4 mps 760 mmHg 47%
    01:00 +27°C° 0 mm 4 mps 760 mmHg 50%
    02:00 +26°C° 0 mm 4 mps 760 mmHg 53%
    03:00 +26°C° 0 mm 4 mps 760 mmHg 56%
    04:00 +25°C° 0 mm 4 mps 760 mmHg 57%
    05:00 +25°C° 0 mm 5 mps 760 mmHg 58%
    06:00 +25°C° 0 mm 5 mps 760 mmHg 59%
    07:00 +26°C° 0 mm 6 mps 760 mmHg 53%
    08:00 +28°C° 0 mm 6 mps 760 mmHg 47%
    09:00 +29°C° 0 mm 7 mps 760 mmHg 41%
    10:00 +32°C° 0 mm 7 mps 760 mmHg 38%
    11:00 +33°C° 0 mm 7 mps 760 mmHg 35%
    12:00 +34°C° 0 mm 7 mps 760 mmHg 32%
    13:00 +35°C° 0 mm 7 mps 759 mmHg 31%
    14:00 +35°C° 0 mm 7 mps 759 mmHg 30%
    15:00 +35°C° 0 mm 7 mps 759 mmHg 30%
    16:00 +35°C° 0 mm 6 mps 759 mmHg 31%
    17:00 +34°C° 0 mm 6 mps 759 mmHg 33%
    18:00 +33°C° 0 mm 5 mps 759 mmHg 34%
    19:00 +32°C° 0 mm 5 mps 759 mmHg 39%
    20:00 +29°C° 0 mm 4 mps 760 mmHg 43%
    21:00 +27°C° 0 mm 3 mps 760 mmHg 48%
    22:00 +26°C° 0 mm 3 mps 760 mmHg 50%
    23:00 +25°C° 0 mm 3 mps 760 mmHg 52%

    26 August, Monday

    Time Temperature Precipitation Wind Pressure Humidity
    00:00 +24°C° 0 mm 3 mps 761 mmHg 54%
    01:00 +24°C° 0 mm 3 mps 761 mmHg 54%
    02:00 +23°C° 0 mm 4 mps 761 mmHg 54%
    03:00 +22°C° 0 mm 4 mps 760 mmHg 54%
    04:00 +22°C° 0 mm 4 mps 761 mmHg 53%
    05:00 +22°C° 0 mm 4 mps 761 mmHg 52%
    06:00 +21°C° 0 mm 5 mps 761 mmHg 51%
    07:00 +23°C° 0 mm 5 mps 761 mmHg 47%
    08:00 +26°C° 0 mm 5 mps 762 mmHg 42%
    09:00 +28°C° 0 mm 6 mps 762 mmHg 38%
    10:00 +29°C° 0 mm 6 mps 762 mmHg 35%
    11:00 +32°C° 0 mm 7 mps 762 mmHg 32%
    12:00 +33°C° 0 mm 7 mps 762 mmHg 30%
    13:00 +33°C° 0 mm 7 mps 762 mmHg 29%
    14:00 +34°C° 0 mm 7 mps 762 mmHg 29%
    15:00 +34°C° 0 mm 7 mps 762 mmHg 28%
    16:00 +33°C° 0 mm 7 mps 762 mmHg 30%
    17:00 +33°C° 0 mm 6 mps 762 mmHg 31%
    18:00 +32°C° 0 mm 6 mps 762 mmHg 33%
    19:00 +29°C° 0 mm 6 mps 763 mmHg 36%
    20:00 +28°C° 0 mm 5 mps 763 mmHg 40%
    21:00 +26°C° 0 mm 5 mps 763 mmHg 43%
    22:00 +25°C° 0 mm 5 mps 763 mmHg 43%
    23:00 +25°C° 0 mm 5 mps 764 mmHg 42%

    27 August, Tuesday

    Time Temperature Precipitation Wind Pressure Humidity
    00:00 +23°C° 0 mm 5 mps 764 mmHg 41%
    01:00 +23°C° 0 mm 6 mps 764 mmHg 42%
    02:00 +22°C° 0 mm 6 mps 764 mmHg 42%
    03:00 +21°C° 0 mm 6 mps 764 mmHg 43%
    04:00 +21°C° 0 mm 6 mps 764 mmHg 45%
    05:00 +20°C° 0 mm 5 mps 764 mmHg 47%
    06:00 +20°C° 0 mm 5 mps 764 mmHg 49%
    07:00 +22°C° 0 mm 5 mps 764 mmHg 45%
    08:00 +24°C° 0 mm 6 mps 764 mmHg 41%
    09:00 +26°C° 0 mm 6 mps 764 mmHg 36%
    10:00 +28°C° 0 mm 6 mps 764 mmHg 34%
    11:00 +29°C° 0 mm 6 mps 764 mmHg 31%
    12:00 +32°C° 0 mm 6 mps 764 mmHg 29%
    13:00 +32°C° 0 mm 6 mps 764 mmHg 28%
    14:00 +32°C° 0 mm 6 mps 763 mmHg 26%
    15:00 +33°C° 0 mm 6 mps 763 mmHg 25%
    16:00 +32°C° 0 mm 6 mps 763 mmHg 25%
    17:00 +30°C° 0 mm 6 mps 763 mmHg 25%
    18:00 +29°C° 0 mm 5 mps 763 mmHg 25%
    19:00 +27°C° 0 mm 5 mps 763 mmHg 27%
    20:00 +26°C° 0 mm 5 mps 763 mmHg 28%
    21:00 +23°C° 0 mm 4 mps 764 mmHg 30%
    22:00 +22°C° 0 mm 4 mps 764 mmHg 30%
    23:00 +21°C° 0 mm 4 mps 764 mmHg 29%
    Show more